Retour au catalogue

SL-14 R/B

ActifPO
NORAD 20671·ROCKET BODY·🇷🇺 Russia

Lancé Jun 27, 1990 depuis Plesetsk Cosmodrome

Loading…

Prochains Passages (prochaines 24 heures)

TLE

FraisSource: Space-Track

Époque: Sep 14, 2026, 14:42 UTC

1 20671U 90057B   26257.61270955  .00000027  00000-0  10664-4 0  9994
2 20671  82.5480 208.0474 0014962 187.3378 172.7566 13.84741628830042

Suivez SL-14 R/B en temps réel avec AllMySat

Download on the App Store